| time (UTC) | temp F | wind direction | speed knots | gust knots | rain 1hr in | rain 24hr in | rain mn in | humidity % | barometer mb |
| 20260902162005 | 91 | 133 | 4.3 | 7.0 | 0.00 | 0.00 | 0.00 | 57 | 1017.1 |
| 20260902161505 | 91 | 127 | 1.7 | 5.2 | 0.00 | 0.00 | 0.00 | 57 | 1017.1 |
| 20260902161005 | 90 | 62 | 2.6 | 7.8 | 0.00 | 0.00 | 0.00 | 59 | 1017.1 |
| 20260902160504 | 90 | 99 | 3.5 | 7.8 | 0.00 | 0.00 | 0.00 | 59 | 1017.2 |
| 20260902160007 | 90 | 184 | 5.2 | 7.8 | 0.00 | 0.00 | 0.00 | 59 | 1017.2 |
| 20260902155504 | 89 | 165 | 4.3 | 7.8 | 0.00 | 0.00 | 0.00 | 59 | 1017.2 |
| 20260902155005 | 89 | 182 | 4.3 | 7.0 | 0.00 | 0.00 | 0.00 | 59 | 1017.1 |
| 20260902154505 | 89 | 169 | 6.1 | 10.4 | 0.00 | 0.00 | 0.00 | 59 | 1017.2 |
| 20260902154004 | 89 | 162 | 2.6 | 8.7 | 0.00 | 0.00 | 0.00 | 60 | 1017.2 |
| 20260902153505 | 89 | 150 | 3.5 | 7.8 | 0.00 | 0.00 | 0.00 | 60 | 1017.0 |
| 20260902152504 | 88 | 99 | 4.3 | 8.7 | 0.00 | 0.00 | 0.00 | 62 | 1017.1 |
| 20260902152005 | 88 | 93 | 2.6 | 8.7 | 0.00 | 0.00 | 0.00 | 63 | 1017.1 |
| 20260902151504 | 87 | 162 | 1.7 | 6.1 | 0.00 | 0.00 | 0.00 | 64 | 1016.9 |
| 20260902151005 | 87 | 115 | 4.3 | 7.8 | 0.00 | 0.00 | 0.00 | 63 | 1016.9 |
| 20260902150504 | 87 | 43 | 1.7 | 7.0 | 0.00 | 0.00 | 0.00 | 64 | 1016.9 |
| 20260902150004 | 87 | 101 | 1.7 | 5.2 | 0.00 | 0.00 | 0.00 | 64 | 1016.8 |
| 20260902145505 | 87 | 178 | 2.6 | 5.2 | 0.00 | 0.00 | 0.00 | 64 | 1016.8 |
| 20260902144004 | 86 | 125 | 3.5 | 7.0 | 0.00 | 0.00 | 0.00 | 66 | 1016.8 |
| 20260902143505 | 86 | 99 | 0.9 | 4.3 | 0.00 | 0.00 | 0.00 | 65 | 1016.9 |
| 20260902143004 | 86 | 94 | 4.3 | 6.1 | 0.00 | 0.00 | 0.00 | 66 | 1016.9 |
| 20260902142504 | 86 | 172 | 2.6 | 5.2 | 0.00 | 0.00 | 0.00 | 67 | 1016.9 |
| 20260902142005 | 85 | 148 | 2.6 | 6.1 | 0.00 | 0.00 | 0.00 | 67 | 1016.8 |
| 20260902141004 | 84 | 125 | 3.5 | 7.0 | 0.00 | 0.00 | 0.00 | 68 | 1016.7 |
| 20260902140505 | 84 | 125 | 2.6 | 6.1 | 0.00 | 0.00 | 0.00 | 68 | 1016.7 |
| 20260902140004 | 83 | 113 | 2.6 | 7.0 | 0.00 | 0.00 | 0.00 | 69 | 1016.7 |
| 20260902135504 | 83 | 162 | 4.3 | 6.1 | 0.00 | 0.00 | 0.00 | 68 | 1016.8 |
| 20260902135005 | 83 | 120 | 2.6 | 5.2 | 0.00 | 0.00 | 0.00 | 68 | 1016.8 |
| 20260902134504 | 83 | 141 | 2.6 | 6.1 | 0.00 | 0.00 | 0.00 | 68 | 1016.8 |
| 20260902134005 | 83 | 171 | 2.6 | 5.2 | 0.00 | 0.00 | 0.00 | 68 | 1016.8 |
| 20260902133505 | 82 | 146 | 1.7 | 7.0 | 0.00 | 0.00 | 0.00 | 70 | 1016.8 |
| 20260902133004 | 82 | 159 | 3.5 | 7.0 | 0.00 | 0.00 | 0.00 | 71 | 1016.8 |
| 20260902132504 | 81 | 139 | 4.3 | 7.8 | 0.00 | 0.00 | 0.00 | 72 | 1016.8 |
| 20260902131505 | 81 | 124 | 2.6 | 7.8 | 0.00 | 0.00 | 0.00 | 73 | 1016.6 |
| 20260902131004 | 80 | 137 | 2.6 | 7.0 | 0.00 | 0.00 | 0.00 | 74 | 1016.6 |
| 20260902130504 | 80 | 107 | 4.3 | 7.0 | 0.00 | 0.00 | 0.00 | 75 | 1016.6 |
| 20260902125504 | 80 | 103 | 3.5 | 7.8 | 0.00 | 0.00 | 0.00 | 76 | 1016.5 |
| 20260902125004 | 79 | 123 | 1.7 | 2.6 | 0.00 | 0.00 | 0.00 | 76 | 1016.4 |
| 20260902124504 | 79 | 123 | 0.0 | 1.7 | 0.00 | 0.00 | 0.00 | 76 | 1016.4 |
| 20260902123504 | 79 | 123 | 0.9 | 1.7 | 0.00 | 0.00 | 0.00 | 75 | 1016.3 |
| 20260902122504 | 79 | 123 | 0.0 | 0.9 | 0.00 | 0.00 | 0.00 | 75 | 1016.3 |
| 20260902122004 | 78 | 123 | 0.0 | 1.7 | 0.00 | 0.00 | 0.00 | 75 | 1016.2 |
| 20260902121504 | 78 | 123 | 0.0 | 2.6 | 0.00 | 0.00 | 0.00 | 75 | 1016.1 |
| 20260902121004 | 79 | 123 | 1.7 | 2.6 | 0.00 | 0.00 | 0.00 | 75 | 1016.2 |
| 20260902120504 | 79 | 123 | 0.9 | 2.6 | 0.00 | 0.00 | 0.00 | 74 | 1016.2 |
| 20260902120004 | 79 | 123 | 0.9 | 4.3 | 0.00 | 0.00 | 0.00 | 74 | 1016.2 |
| 20260902115504 | 79 | 123 | 1.7 | 2.6 | 0.00 | 0.00 | 0.00 | 74 | 1016.1 |
| 20260902114504 | 79 | 123 | 0.9 | 2.6 | 0.00 | 0.00 | 0.00 | 74 | 1016.2 |
| 20260902114004 | 78 | 123 | 0.9 | 4.3 | 0.00 | 0.00 | 0.00 | 74 | 1016.2 |
| 20260902113504 | 78 | 159 | 0.9 | 1.7 | 0.00 | 0.00 | 0.00 | 75 | 1016.1 |
| 20260902113004 | 78 | 159 | 0.0 | 0.0 | 0.00 | 0.00 | 0.00 | 75 | 1016.1 |
| 20260902112004 | 78 | 159 | 0.0 | 0.0 | 0.00 | 0.00 | 0.00 | 74 | 1016.2 |
| 20260902111504 | 78 | 159 | 0.0 | 0.0 | 0.00 | 0.00 | 0.00 | 74 | 1016.3 |
| 20260902111004 | 79 | 159 | 0.0 | 0.0 | 0.00 | 0.00 | 0.00 | 73 | 1016.2 |
| 20260902110504 | 79 | 159 | 0.0 | 0.0 | 0.00 | 0.00 | 0.00 | 73 | 1016.2 |
| 20260902110007 | 79 | 159 | 0.0 | 0.0 | 0.00 | 0.00 | 0.00 | 72 | 1016.2 |
| 20260902105504 | 79 | 159 | 0.0 | 0.0 | 0.00 | 0.00 | 0.00 | 72 | 1016.2 |
| 20260902105004 | 79 | 159 | 0.0 | 0.0 | 0.00 | 0.00 | 0.00 | 72 | 1016.2 |
| 20260902104504 | 79 | 159 | 0.0 | 0.0 | 0.00 | 0.00 | 0.00 | 72 | 1016.1 |
| 20260902104004 | 79 | 159 | 0.0 | 0.0 | 0.00 | 0.00 | 0.00 | 72 | 1016.2 |
| 20260902103503 | 79 | 159 | 0.0 | 0.0 | 0.00 | 0.00 | 0.00 | 72 | 1016.2 |
| 20260902103004 | 79 | 159 | 0.0 | 0.0 | 0.00 | 0.00 | 0.00 | 72 | 1016.2 |
| 20260902102504 | 80 | 159 | 0.0 | 0.0 | 0.00 | 0.00 | 0.00 | 71 | 1016.1 |
| 20260902102004 | 80 | 159 | 0.0 | 0.0 | 0.00 | 0.00 | 0.00 | 71 | 1016.1 |
| 20260902101503 | 80 | 159 | 0.0 | 0.0 | 0.00 | 0.00 | 0.00 | 71 | 1016.1 |
| 20260902101003 | 80 | 159 | 0.0 | 0.0 | 0.00 | 0.00 | 0.00 | 70 | 1016.1 |
| 20260902100504 | 80 | 159 | 0.0 | 0.0 | 0.00 | 0.00 | 0.00 | 70 | 1016.1 |
| 20260902100004 | 80 | 159 | 0.0 | 0.0 | 0.00 | 0.00 | 0.00 | 70 | 1016.1 |
| 20260902094504 | 81 | 159 | 0.0 | 0.0 | 0.00 | 0.00 | 0.00 | 69 | 1016.0 |
| 20260902094003 | 81 | 159 | 0.0 | 0.0 | 0.00 | 0.00 | 0.00 | 68 | 1015.9 |
| 20260902093004 | 81 | 159 | 0.9 | 1.7 | 0.00 | 0.00 | 0.00 | 68 | 1015.9 |
| 20260902091503 | 81 | 159 | 0.0 | 0.0 | 0.00 | 0.00 | 0.00 | 68 | 1016.0 |
| 20260902091004 | 81 | 159 | 0.0 | 0.0 | 0.00 | 0.00 | 0.00 | 67 | 1016.0 |
| 20260902090504 | 81 | 159 | 0.0 | 0.0 | 0.00 | 0.00 | 0.00 | 66 | 1015.9 |
| 20260902090005 | 81 | 159 | 0.0 | 0.0 | 0.00 | 0.00 | 0.00 | 66 | 1016.0 |
| 20260902085504 | 82 | 159 | 0.0 | 0.0 | 0.00 | 0.00 | 0.00 | 66 | 1015.8 |
| 20260902085003 | 82 | 159 | 0.0 | 0.0 | 0.00 | 0.00 | 0.00 | 65 | 1015.9 |
| 20260902084003 | 83 | 159 | 0.0 | 4.3 | 0.00 | 0.00 | 0.00 | 64 | 1016.0 |
| 20260902083504 | 83 | 159 | 1.7 | 5.2 | 0.00 | 0.00 | 0.00 | 63 | 1015.9 |
| 20260902083006 | 83 | 159 | 2.6 | 6.1 | 0.00 | 0.00 | 0.00 | 63 | 1015.9 |
| 20260902082507 | 83 | 164 | 3.5 | 7.8 | 0.00 | 0.00 | 0.00 | 62 | 1015.9 |
| 20260902082007 | 83 | 169 | 2.6 | 10.4 | 0.00 | 0.00 | 0.00 | 62 | 1015.9 |
| 20260902081007 | 84 | 165 | 5.2 | 11.3 | 0.00 | 0.00 | 0.00 | 62 | 1015.9 |
| 20260902075507 | 84 | 160 | 5.2 | 10.4 | 0.00 | 0.00 | 0.00 | 62 | 1016.0 |
| 20260902075007 | 84 | 170 | 5.2 | 11.3 | 0.00 | 0.00 | 0.00 | 62 | 1015.9 |
| 20260902074507 | 84 | 173 | 5.2 | 10.4 | 0.00 | 0.00 | 0.00 | 62 | 1015.9 |
| 20260902074006 | 84 | 169 | 5.2 | 11.3 | 0.00 | 0.00 | 0.00 | 62 | 1016.0 |
| 20260902073507 | 84 | 177 | 4.3 | 8.7 | 0.00 | 0.00 | 0.00 | 62 | 1015.9 |
| 20260902073007 | 84 | 163 | 5.2 | 8.7 | 0.00 | 0.00 | 0.00 | 62 | 1016.1 |
| 20260902072506 | 84 | 168 | 4.3 | 8.7 | 0.00 | 0.00 | 0.00 | 62 | 1016.1 |
| 20260902071506 | 84 | 171 | 5.2 | 11.3 | 0.00 | 0.00 | 0.00 | 62 | 1016.0 |
| 20260902071007 | 85 | 171 | 6.1 | 11.3 | 0.00 | 0.00 | 0.00 | 63 | 1016.0 |
| 20260902070007 | 85 | 166 | 4.3 | 11.3 | 0.00 | 0.00 | 0.00 | 63 | 1016.0 |
| 20260902065506 | 85 | 168 | 7.8 | 11.3 | 0.00 | 0.00 | 0.00 | 63 | 1015.9 |
| 20260902065007 | 85 | 153 | 4.3 | 8.7 | 0.00 | 0.00 | 0.00 | 63 | 1016.0 |
| 20260902064506 | 85 | 163 | 5.2 | 13.0 | 0.00 | 0.00 | 0.00 | 62 | 1015.9 |
| 20260902063507 | 85 | 175 | 7.0 | 11.3 | 0.00 | 0.00 | 0.00 | 63 | 1015.8 |
| 20260902063006 | 85 | 170 | 7.8 | 11.3 | 0.00 | 0.00 | 0.00 | 62 | 1015.8 |
| 20260902062506 | 85 | 155 | 8.7 | 13.9 | 0.00 | 0.00 | 0.00 | 62 | 1015.8 |
| 20260902062007 | 85 | 162 | 10.4 | 15.6 | 0.00 | 0.00 | 0.00 | 62 | 1015.8 |
| 20260902061006 | 85 | 163 | 9.6 | 13.9 | 0.00 | 0.00 | 0.00 | 61 | 1015.7 |
| 20260902060506 | 86 | 156 | 7.8 | 15.6 | 0.00 | 0.00 | 0.00 | 62 | 1015.8 |
| 20260902060007 | 86 | 177 | 5.2 | 14.8 | 0.00 | 0.00 | 0.00 | 61 | 1015.8 |
| 20260902055506 | 86 | 169 | 7.8 | 11.3 | 0.00 | 0.00 | 0.00 | 61 | 1015.8 |
| 20260902055006 | 86 | 140 | 6.1 | 11.3 | 0.00 | 0.00 | 0.00 | 61 | 1015.8 |
| 20260902054506 | 86 | 179 | 7.8 | 13.9 | 0.00 | 0.00 | 0.00 | 60 | 1015.8 |
| 20260902054006 | 86 | 166 | 7.8 | 13.0 | 0.00 | 0.00 | 0.00 | 60 | 1015.8 |
| 20260902053506 | 87 | 167 | 6.1 | 13.0 | 0.00 | 0.00 | 0.00 | 60 | 1015.8 |
| 20260902053007 | 87 | 167 | 9.6 | 13.9 | 0.00 | 0.00 | 0.00 | 60 | 1015.7 |
| 20260902052507 | 87 | 167 | 6.1 | 13.0 | 0.00 | 0.00 | 0.00 | 60 | 1015.7 |
| 20260902052006 | 87 | 165 | 8.7 | 13.0 | 0.00 | 0.00 | 0.00 | 60 | 1015.7 |
| 20260902051506 | 87 | 158 | 6.1 | 11.3 | 0.00 | 0.00 | 0.00 | 59 | 1015.7 |
| 20260902050506 | 87 | 157 | 3.5 | 10.4 | 0.00 | 0.00 | 0.00 | 59 | 1015.7 |
| 20260902045007 | 88 | 171 | 4.3 | 8.7 | 0.00 | 0.00 | 0.00 | 57 | 1015.8 |
| 20260902044506 | 88 | 167 | 5.2 | 12.2 | 0.00 | 0.00 | 0.00 | 56 | 1015.7 |
| 20260902044006 | 88 | 168 | 9.6 | 13.9 | 0.00 | 0.00 | 0.00 | 56 | 1015.8 |
| 20260902043506 | 89 | 190 | 5.2 | 11.3 | 0.00 | 0.00 | 0.00 | 55 | 1015.7 |
| 20260902043007 | 89 | 162 | 5.2 | 13.9 | 0.00 | 0.00 | 0.00 | 55 | 1015.6 |
| 20260902042506 | 89 | 160 | 5.2 | 13.9 | 0.00 | 0.00 | 0.00 | 54 | 1015.6 |
| 20260902042006 | 89 | 153 | 5.2 | 8.7 | 0.00 | 0.00 | 0.00 | 53 | 1015.6 |
| 20260902041506 | 89 | 124 | 5.2 | 8.7 | 0.00 | 0.00 | 0.00 | 53 | 1015.5 |
| 20260902041006 | 89 | 135 | 5.2 | 11.3 | 0.00 | 0.00 | 0.00 | 53 | 1015.5 |
| 20260902040006 | 90 | 128 | 0.9 | 1.7 | 0.00 | 0.00 | 0.00 | 53 | 1015.3 |
| 20260902035506 | 90 | 128 | 0.9 | 1.7 | 0.00 | 0.00 | 0.00 | 52 | 1015.2 |
| 20260902035006 | 90 | 128 | 1.7 | 6.1 | 0.00 | 0.00 | 0.00 | 52 | 1015.2 |
| 20260902034006 | 91 | 168 | 2.6 | 6.1 | 0.00 | 0.00 | 0.00 | 51 | 1015.3 |
| 20260902033506 | 91 | 140 | 2.6 | 7.8 | 0.00 | 0.00 | 0.00 | 51 | 1015.3 |
| 20260902033006 | 91 | 144 | 2.6 | 6.1 | 0.00 | 0.00 | 0.00 | 51 | 1015.3 |
| 20260902032506 | 91 | 128 | 1.7 | 4.3 | 0.00 | 0.00 | 0.00 | 50 | 1015.1 |
| 20260902032006 | 91 | 134 | 3.5 | 8.7 | 0.00 | 0.00 | 0.00 | 50 | 1015.1 |
| 20260902031506 | 91 | 147 | 2.6 | 8.7 | 0.00 | 0.00 | 0.00 | 50 | 1015.2 |
| 20260902030505 | 91 | 150 | 0.9 | 4.3 | 0.00 | 0.00 | 0.00 | 50 | 1015.0 |
| 20260902030006 | 91 | 113 | 2.6 | 7.0 | 0.00 | 0.00 | 0.00 | 50 | 1015.0 |
| 20260902025506 | 91 | 136 | 1.7 | 4.3 | 0.00 | 0.00 | 0.00 | 50 | 1014.8 |
| 20260902024506 | 91 | 161 | 1.7 | 5.2 | 0.00 | 0.00 | 0.00 | 50 | 1014.7 |
| 20260902024006 | 91 | 122 | 1.7 | 6.1 | 0.00 | 0.00 | 0.00 | 50 | 1014.7 |
| 20260902023006 | 91 | 127 | 0.9 | 1.7 | 0.00 | 0.00 | 0.00 | 50 | 1014.5 |
| 20260902022506 | 91 | 127 | 1.7 | 4.3 | 0.00 | 0.00 | 0.00 | 49 | 1014.5 |
| 20260902022006 | 91 | 127 | 2.6 | 5.2 | 0.00 | 0.00 | 0.00 | 49 | 1014.4 |
| 20260902021506 | 91 | 121 | 1.7 | 4.3 | 0.00 | 0.00 | 0.00 | 49 | 1014.3 |
| 20260902021006 | 91 | 124 | 2.6 | 6.1 | 0.00 | 0.00 | 0.00 | 48 | 1014.2 |
| 20260902020505 | 91 | 130 | 1.7 | 6.1 | 0.00 | 0.00 | 0.00 | 48 | 1014.2 |
| 20260902020006 | 91 | 106 | 2.6 | 6.1 | 0.00 | 0.00 | 0.00 | 48 | 1014.0 |
| 20260902015506 | 91 | 121 | 1.7 | 2.6 | 0.00 | 0.00 | 0.00 | 49 | 1014.0 |
| 20260902015006 | 91 | 121 | 0.0 | 1.7 | 0.00 | 0.00 | 0.00 | 48 | 1013.9 |
| 20260902014506 | 92 | 121 | 0.0 | 1.7 | 0.00 | 0.00 | 0.00 | 48 | 1013.9 |
| 20260902013506 | 92 | 121 | 0.0 | 0.0 | 0.00 | 0.00 | 0.00 | 47 | 1013.7 |
| 20260902013005 | 92 | 121 | 0.0 | 0.9 | 0.00 | 0.00 | 0.00 | 47 | 1013.7 |
| 20260902012505 | 93 | 121 | 0.0 | 1.7 | 0.00 | 0.00 | 0.00 | 46 | 1013.7 |
| 20260902012006 | 93 | 121 | 0.9 | 1.7 | 0.00 | 0.00 | 0.00 | 46 | 1013.7 |
| 20260902011506 | 93 | 121 | 0.9 | 1.7 | 0.00 | 0.00 | 0.00 | 46 | 1013.6 |
| 20260902011006 | 93 | 121 | 0.9 | 4.3 | 0.00 | 0.00 | 0.00 | 45 | 1013.6 |
| 20260902010505 | 93 | 121 | 0.9 | 4.3 | 0.00 | 0.00 | 0.00 | 45 | 1013.5 |
| 20260902010006 | 94 | 121 | 1.7 | 2.6 | 0.00 | 0.00 | 0.00 | 44 | 1013.5 |
| 20260902005506 | 94 | 121 | 1.7 | 5.2 | 0.00 | 0.00 | 0.00 | 44 | 1013.6 |
| 20260902005006 | 94 | 121 | 1.7 | 7.8 | 0.00 | 0.00 | 0.00 | 44 | 1013.7 |
| 20260902004006 | 94 | 166 | 2.6 | 6.1 | 0.00 | 0.00 | 0.00 | 43 | 1013.6 |
| 20260902003506 | 94 | 174 | 2.6 | 8.7 | 0.00 | 0.00 | 0.00 | 43 | 1013.7 |
| 20260902003005 | 95 | 128 | 3.5 | 7.8 | 0.00 | 0.00 | 0.00 | 42 | 1013.6 |
| 20260902002506 | 95 | 131 | 2.6 | 7.0 | 0.00 | 0.00 | 0.00 | 43 | 1013.7 |
| 20260902002005 | 95 | 165 | 2.6 | 8.7 | 0.00 | 0.00 | 0.00 | 43 | 1013.8 |
| 20260902001505 | 95 | 143 | 2.6 | 7.0 | 0.00 | 0.00 | 0.00 | 43 | 1013.9 |
| 20260902001006 | 95 | 134 | 1.7 | 8.7 | 0.00 | 0.00 | 0.00 | 43 | 1013.8 |
| 20260902000506 | 95 | 131 | 2.6 | 8.7 | 0.00 | 0.00 | 0.00 | 43 | 1013.9 |
| 20260902000005 | 95 | 124 | 3.5 | 8.7 | 0.00 | 0.00 | 0.00 | 43 | 1014.0 |
| 20260901235505 | 96 | 108 | 4.3 | 8.7 | 0.00 | 0.00 | 0.00 | 43 | 1013.9 |
| 20260901235005 | 96 | 118 | 2.6 | 10.4 | 0.00 | 0.00 | 0.00 | 42 | 1013.9 |
| 20260901234505 | 96 | 117 | 5.2 | 10.4 | 0.00 | 0.00 | 0.00 | 42 | 1013.9 |
| 20260901233006 | 97 | 166 | 2.6 | 7.8 | 0.00 | 0.00 | 0.00 | 41 | 1014.0 |
| 20260901232506 | 97 | 135 | 5.2 | 8.7 | 0.00 | 0.00 | 0.00 | 41 | 1014.0 |
| 20260901232005 | 97 | 164 | 4.3 | 8.7 | 0.00 | 0.00 | 0.00 | 41 | 1014.1 |
| 20260901231505 | 97 | 124 | 4.3 | 13.0 | 0.00 | 0.00 | 0.00 | 41 | 1014.2 |
| 20260901231005 | 98 | 148 | 5.2 | 13.9 | 0.00 | 0.00 | 0.00 | 41 | 1014.1 |
| 20260901230505 | 97 | 106 | 7.0 | 10.4 | 0.00 | 0.00 | 0.00 | 40 | 1014.1 |
| 20260901225506 | 98 | 143 | 5.2 | 8.7 | 0.00 | 0.00 | 0.00 | 39 | 1014.0 |
| 20260901225005 | 98 | 94 | 4.3 | 8.7 | 0.00 | 0.00 | 0.00 | 40 | 1014.1 |
| 20260901224506 | 98 | 138 | 3.5 | 10.4 | 0.00 | 0.00 | 0.00 | 40 | 1014.1 |
| 20260901224006 | 98 | 109 | 5.2 | 10.4 | 0.00 | 0.00 | 0.00 | 40 | 1014.0 |
| 20260901223006 | 98 | 104 | 2.6 | 8.7 | 0.00 | 0.00 | 0.00 | 39 | 1013.9 |
| 20260901222506 | 99 | 131 | 7.8 | 11.3 | 0.00 | 0.00 | 0.00 | 39 | 1013.9 |
| 20260901222005 | 99 | 12 | 2.6 | 7.8 | 0.00 | 0.00 | 0.00 | 40 | 1014.0 |
| 20260901221505 | 99 | 93 | 5.2 | 10.4 | 0.00 | 0.00 | 0.00 | 38 | 1014.0 |
| 20260901221005 | 99 | 152 | 2.6 | 7.0 | 0.00 | 0.00 | 0.00 | 39 | 1014.0 |
| 20260901220505 | 99 | 115 | 4.3 | 7.0 | 0.00 | 0.00 | 0.00 | 39 | 1014.0 |
| 20260901220005 | 99 | 61 | 2.6 | 8.7 | 0.00 | 0.00 | 0.00 | 39 | 1014.2 |
| 20260901215505 | 99 | 73 | 3.5 | 10.4 | 0.00 | 0.00 | 0.00 | 39 | 1014.2 |
| 20260901215005 | 100 | 69 | 2.6 | 7.8 | 0.00 | 0.00 | 0.00 | 38 | 1014.3 |
| 20260901214505 | 100 | 161 | 5.2 | 11.3 | 0.00 | 0.00 | 0.00 | 37 | 1014.2 |
| 20260901214005 | 100 | 76 | 2.6 | 7.8 | 0.00 | 0.00 | 0.00 | 38 | 1014.4 |
| 20260901213505 | 99 | 77 | 1.7 | 7.8 | 0.00 | 0.00 | 0.00 | 38 | 1014.3 |
| 20260901213005 | 99 | 173 | 1.7 | 7.0 | 0.00 | 0.00 | 0.00 | 40 | 1014.5 |
| 20260901212505 | 99 | 113 | 4.3 | 8.7 | 0.00 | 0.00 | 0.00 | 39 | 1014.5 |
| 20260901211505 | 99 | 109 | 3.5 | 6.1 | 0.00 | 0.00 | 0.00 | 38 | 1014.7 |
| 20260901211006 | 99 | 105 | 4.3 | 8.7 | 0.00 | 0.00 | 0.00 | 39 | 1014.8 |
| 20260901210505 | 99 | 108 | 6.1 | 10.4 | 0.00 | 0.00 | 0.00 | 39 | 1014.8 |
| 20260901210005 | 100 | 107 | 8.7 | 11.3 | 0.00 | 0.00 | 0.00 | 39 | 1014.7 |
| 20260901205505 | 99 | 92 | 2.6 | 7.8 | 0.00 | 0.00 | 0.00 | 39 | 1014.8 |
| 20260901205005 | 100 | 90 | 6.1 | 11.3 | 0.00 | 0.00 | 0.00 | 39 | 1014.8 |
| 20260901204505 | 99 | 88 | 2.6 | 6.1 | 0.00 | 0.00 | 0.00 | 40 | 1014.8 |
| 20260901204005 | 99 | 92 | 5.2 | 11.3 | 0.00 | 0.00 | 0.00 | 40 | 1014.9 |
| 20260901203005 | 99 | 119 | 4.3 | 11.3 | 0.00 | 0.00 | 0.00 | 37 | 1015.0 |
| 20260901202006 | 99 | 169 | 5.2 | 10.4 | 0.00 | 0.00 | 0.00 | 39 | 1015.2 |
| 20260901195005 | 98 | 123 | 2.6 | 7.8 | 0.00 | 0.00 | 0.00 | 40 | 1015.5 |
| 20260901194505 | 98 | 118 | 4.3 | 11.3 | 0.00 | 0.00 | 0.00 | 41 | 1015.5 |
| 20260901194005 | 97 | 99 | 1.7 | 5.2 | 0.00 | 0.00 | 0.00 | 43 | 1015.6 |
| 20260901193005 | 97 | 133 | 4.3 | 8.7 | 0.00 | 0.00 | 0.00 | 41 | 1015.6 |
| 20260901192505 | 99 | 157 | 3.5 | 7.0 | 0.00 | 0.00 | 0.00 | 41 | 1015.7 |
| 20260901191505 | 99 | 188 | 6.1 | 10.4 | 0.00 | 0.00 | 0.00 | 40 | 1015.8 |
| 20260901191005 | 99 | 176 | 7.8 | 12.2 | 0.00 | 0.00 | 0.00 | 40 | 1015.9 |
| 20260901190505 | 98 | 95 | 1.7 | 7.8 | 0.00 | 0.00 | 0.00 | 41 | 1016.0 |
| 20260901190005 | 97 | 183 | 4.3 | 11.3 | 0.00 | 0.00 | 0.00 | 40 | 1016.1 |
| 20260901185505 | 97 | 142 | 2.6 | 11.3 | 0.00 | 0.00 | 0.00 | 41 | 1016.2 |
| 20260901185005 | 98 | 163 | 7.8 | 10.4 | 0.00 | 0.00 | 0.00 | 40 | 1016.3 |
| 20260901184505 | 98 | 120 | 3.5 | 8.7 | 0.00 | 0.00 | 0.00 | 44 | 1016.4 |
| 20260901184005 | 97 | 94 | 1.7 | 7.0 | 0.00 | 0.00 | 0.00 | 44 | 1016.5 |
| 20260901183005 | 96 | 94 | 3.5 | 6.1 | 0.00 | 0.00 | 0.00 | 45 | 1016.7 |
| 20260901182505 | 97 | 123 | 6.1 | 11.3 | 0.00 | 0.00 | 0.00 | 44 | 1016.7 |
| 20260901182004 | 97 | 147 | 5.2 | 11.3 | 0.00 | 0.00 | 0.00 | 44 | 1016.8 |
| 20260901181505 | 96 | 123 | 6.1 | 8.7 | 0.00 | 0.00 | 0.00 | 45 | 1016.9 |
| 20260901181005 | 94 | 118 | 1.7 | 2.6 | 0.00 | 0.00 | 0.00 | 48 | 1016.9 |
| 20260901180504 | 93 | 117 | 1.7 | 6.1 | 0.00 | 0.00 | 0.00 | 49 | 1017.1 |
| 20260901175505 | 92 | 92 | 0.0 | 1.7 | 0.00 | 0.00 | 0.00 | 50 | 1017.2 |
| 20260901175004 | 93 | 118 | 1.7 | 4.3 | 0.00 | 0.00 | 0.00 | 49 | 1017.4 |
| 20260901174006 | 95 | 187 | 4.3 | 8.7 | 0.00 | 0.00 | 0.00 | 47 | 1017.4 |
| 20260901173005 | 95 | 166 | 5.2 | 7.8 | 0.00 | 0.00 | 0.00 | 47 | 1017.6 |
| 20260901172005 | 97 | 9 | 1.7 | 5.2 | 0.00 | 0.00 | 0.00 | 46 | 1017.6 |
| 20260901171504 | 96 | 70 | 0.0 | 2.6 | 0.00 | 0.00 | 0.00 | 47 | 1017.8 |
| 20260901171004 | 95 | 131 | 2.6 | 5.2 | 0.00 | 0.00 | 0.00 | 49 | 1017.8 |
| 20260901170005 | 94 | 146 | 2.6 | 6.1 | 0.00 | 0.00 | 0.00 | 50 | 1018.0 |
| 20260901165504 | 94 | 195 | 4.3 | 10.4 | 0.00 | 0.00 | 0.00 | 50 | 1018.1 |
| 20260901164504 | 94 | 183 | 1.7 | 2.6 | 0.00 | 0.00 | 0.00 | 50 | 1018.0 |
| 20260901164004 | 92 | 183 | 0.9 | 4.3 | 0.00 | 0.00 | 0.00 | 53 | 1018.2 |
| 20260901163505 | 93 | 227 | 1.7 | 4.3 | 0.00 | 0.00 | 0.00 | 51 | 1018.2 |
| 20260901163005 | 94 | 147 | 1.7 | 7.0 | 0.00 | 0.00 | 0.00 | 50 | 1018.2 |